| time (UTC) | temp F | wind direction | speed knots | gust knots | rain 1hr in | rain 24hr in | rain mn in | humidity % | barometer mb |
| 20260504222318 | 80 | 248 | 0.9 | 1.7 | 0.00 | 0.00 | 0.00 | 44 | 1004.9 |
| 20260504222224 | 80 | 231 | 1.7 | 5.2 | 0.00 | 0.00 | 0.00 | 44 | 1004.9 |
| 20260504221223 | 81 | 272 | 1.7 | 5.2 | 0.00 | 0.00 | 0.00 | 46 | 1005.0 |
| 20260504220817 | 81 | 234 | 0.0 | 1.7 | 0.00 | 0.00 | 0.00 | 44 | 1005.1 |
| 20260504220225 | 82 | 286 | 0.0 | 4.3 | 0.00 | 0.00 | 0.00 | 44 | 1005.1 |
| 20260504215318 | 82 | 254 | 0.9 | 0.9 | 0.00 | 0.00 | 0.00 | 44 | 1005.1 |
| 20260504215224 | 82 | 244 | 2.6 | 2.6 | 0.00 | 0.00 | 0.00 | 44 | 1005.1 |
| 20260504214223 | 81 | 311 | 0.0 | 2.6 | 0.00 | 0.00 | 0.00 | 46 | 1005.1 |
| 20260504213817 | 81 | 251 | 0.0 | 2.6 | 0.00 | 0.00 | 0.00 | 47 | 1005.0 |
| 20260504213225 | 81 | 251 | 0.0 | 0.9 | 0.00 | 0.00 | 0.00 | 49 | 1005.1 |
| 20260504212318 | 81 | 240 | 1.7 | 4.3 | 0.00 | 0.00 | 0.00 | 48 | 1005.1 |
| 20260504212224 | 81 | 117 | 5.2 | 7.8 | 0.00 | 0.00 | 0.00 | 49 | 1005.1 |
| 20260504211224 | 81 | 117 | 0.0 | 0.0 | 0.00 | 0.00 | 0.00 | 50 | 1005.3 |
| 20260504210817 | 81 | 136 | 0.0 | 0.0 | 0.00 | 0.00 | 0.00 | 50 | 1005.3 |
| 20260504210223 | 80 | 132 | 1.7 | 6.1 | 0.00 | 0.00 | 0.00 | 49 | 1005.4 |
| 20260504205318 | 80 | 194 | 0.9 | 4.3 | 0.00 | 0.00 | 0.00 | 48 | 1005.3 |
| 20260504205224 | 80 | 125 | 0.0 | 2.6 | 0.00 | 0.00 | 0.00 | 48 | 1005.4 |
| 20260504204224 | 80 | 243 | 2.6 | 8.7 | 0.00 | 0.00 | 0.00 | 49 | 1005.6 |
| 20260504203818 | 80 | 127 | 0.0 | 5.2 | 0.00 | 0.00 | 0.00 | 49 | 1005.6 |
| 20260504203223 | 80 | 216 | 1.7 | 2.6 | 0.00 | 0.00 | 0.00 | 49 | 1005.7 |
| 20260504202317 | 79 | 186 | 1.7 | 2.6 | 0.00 | 0.00 | 0.00 | 49 | 1005.8 |
| 20260504202223 | 79 | 172 | 0.9 | 5.2 | 0.00 | 0.00 | 0.00 | 49 | 1005.8 |
| 20260504201224 | 79 | 107 | 0.9 | 4.3 | 0.00 | 0.00 | 0.00 | 49 | 1005.8 |
| 20260504200818 | 79 | 207 | 0.0 | 2.6 | 0.00 | 0.00 | 0.00 | 51 | 1006.0 |
| 20260504200224 | 78 | 200 | 0.0 | 4.3 | 0.00 | 0.00 | 0.00 | 54 | 1006.0 |
| 20260504195319 | 77 | 197 | 0.0 | 0.0 | 0.00 | 0.00 | 0.00 | 53 | 1006.2 |
| 20260504195224 | 76 | 198 | 1.7 | 2.6 | 0.00 | 0.00 | 0.00 | 54 | 1006.2 |
| 20260504194224 | 76 | 216 | 0.9 | 7.8 | 0.00 | 0.00 | 0.00 | 54 | 1006.2 |
| 20260504193818 | 75 | 134 | 0.0 | 0.0 | 0.00 | 0.00 | 0.00 | 56 | 1006.4 |
| 20260504193223 | 74 | 177 | 0.9 | 0.9 | 0.00 | 0.00 | 0.00 | 56 | 1006.5 |
| 20260504192317 | 74 | 204 | 5.2 | 6.1 | 0.00 | 0.00 | 0.00 | 55 | 1006.6 |
| 20260504192223 | 74 | 214 | 6.1 | 7.8 | 0.00 | 0.00 | 0.00 | 56 | 1006.6 |
| 20260504191225 | 71 | 193 | 0.0 | 2.6 | 0.00 | 0.00 | 0.00 | 60 | 1006.2 |
| 20260504190818 | 70 | 223 | 2.6 | 7.0 | 0.00 | 0.00 | 0.00 | 61 | 1006.1 |
| 20260504190224 | 68 | 337 | 0.9 | 5.2 | 0.00 | 0.00 | 0.00 | 63 | 1005.9 |
| 20260504185318 | 67 | 123 | 6.1 | 8.7 | 0.00 | 0.00 | 0.00 | 62 | 1005.7 |
| 20260504185223 | 67 | 143 | 4.3 | 10.4 | 0.00 | 0.00 | 0.00 | 62 | 1005.9 |
| 20260504184223 | 68 | 106 | 1.7 | 7.0 | 0.00 | 0.00 | 0.00 | 60 | 1007.4 |
| 20260504183819 | 68 | 150 | 1.7 | 0.9 | 0.00 | 0.00 | 0.00 | 59 | 1007.6 |
| 20260504183225 | 69 | 233 | 0.0 | 6.1 | 0.00 | 0.00 | 0.00 | 57 | 1007.3 |
| 20260504182318 | 70 | 210 | 0.0 | 2.6 | 0.00 | 0.00 | 0.00 | 57 | 1007.7 |
| 20260504182224 | 70 | 216 | 0.9 | 1.7 | 0.00 | 0.00 | 0.00 | 57 | 1007.7 |
| 20260504181224 | 70 | 136 | 1.7 | 5.2 | 0.00 | 0.00 | 0.00 | 57 | 1007.5 |
| 20260504180818 | 70 | 167 | 0.9 | 4.3 | 0.00 | 0.00 | 0.00 | 57 | 1007.4 |
| 20260504180224 | 70 | 256 | 1.7 | 6.1 | 0.00 | 0.00 | 0.00 | 57 | 1007.3 |
| 20260504175317 | 69 | 185 | 0.0 | 0.0 | 0.00 | 0.00 | 0.00 | 58 | 1007.6 |
| 20260504175223 | 69 | 184 | 0.9 | 2.6 | 0.00 | 0.00 | 0.00 | 58 | 1007.7 |
| 20260504174223 | 69 | 141 | 0.0 | 0.0 | 0.00 | 0.00 | 0.00 | 58 | 1007.6 |
| 20260504173819 | 69 | 141 | 0.0 | 0.0 | 0.00 | 0.00 | 0.00 | 58 | 1007.7 |
| 20260504173225 | 68 | 270 | 0.0 | 1.7 | 0.00 | 0.00 | 0.00 | 60 | 1008.0 |
| 20260504172318 | 68 | 239 | 0.0 | 2.6 | 0.00 | 0.00 | 0.00 | 60 | 1008.0 |
| 20260504172224 | 67 | 239 | 0.0 | 0.0 | 0.00 | 0.00 | 0.00 | 61 | 1008.0 |
| 20260504171224 | 67 | 239 | 0.0 | 0.0 | 0.00 | 0.00 | 0.00 | 61 | 1008.1 |
| 20260504170818 | 66 | 239 | 1.7 | 4.3 | 0.00 | 0.00 | 0.00 | 61 | 1008.1 |
| 20260504170223 | 66 | 126 | 1.7 | 4.3 | 0.00 | 0.00 | 0.00 | 60 | 1008.0 |
| 20260504160224 | 66 | 78 | 0.0 | 5.2 | 0.00 | 0.00 | 0.00 | 56 | 1008.5 |
| 20260504150818 | 66 | 183 | 0.0 | 0.0 | 0.00 | 0.00 | 0.00 | 57 | 1009.5 |
| 20260504150224 | 66 | 184 | 1.7 | 5.2 | 0.00 | 0.00 | 0.00 | 55 | 1009.5 |
| 20260504141224 | 70 | 211 | 0.9 | 2.6 | 0.00 | 0.00 | 0.00 | 51 | 1009.6 |
| 20260504140817 | 71 | 196 | 0.9 | 0.9 | 0.00 | 0.00 | 0.00 | 50 | 1009.7 |
| 20260504140225 | 72 | 214 | 0.9 | 0.9 | 0.00 | 0.00 | 0.00 | 50 | 1009.6 |
| 20260504130817 | 68 | 237 | 0.0 | 0.9 | 0.00 | 0.00 | 0.00 | 58 | 1010.1 |
| 20260504130223 | 67 | 204 | 0.9 | 5.2 | 0.00 | 0.00 | 0.00 | 59 | 1010.3 |
| 20260504120223 | 61 | 270 | 1.7 | 2.6 | 0.00 | 0.00 | 0.00 | 66 | 1010.4 |
| 20260504110224 | 60 | 279 | 0.0 | 0.0 | 0.00 | 0.00 | 0.00 | 68 | 1010.3 |
| 20260504100224 | 62 | 258 | 0.0 | 0.0 | 0.00 | 0.00 | 0.00 | 61 | 1010.6 |
| 20260504081224 | 60 | 0 | 0.0 | 0.0 | 0.00 | 0.00 | 0.00 | 71 | 1010.6 |
| 20260504080825 | 60 | 0 | 0.0 | 0.0 | 0.00 | 0.00 | 0.00 | 71 | 1010.7 |
| 20260504080818 | 60 | 0 | 0.0 | 0.0 | 0.00 | 0.00 | 0.00 | 71 | 1010.7 |
| 20260504080223 | 61 | 0 | 0.0 | 0.0 | 0.00 | 0.00 | 0.00 | 70 | 1010.7 |
| 20260504070223 | 62 | 0 | 0.0 | 0.0 | 0.00 | 0.00 | 0.00 | 66 | 1010.7 |
| 20260504060223 | 66 | 0 | 0.0 | 0.0 | 0.00 | 0.00 | 0.00 | 57 | 1011.4 |
| 20260504050223 | 64 | 296 | 0.0 | 0.0 | 0.00 | 0.00 | 0.00 | 57 | 1010.4 |
| 20260504045318 | 64 | 296 | 0.0 | 0.0 | 0.00 | 0.00 | 0.00 | 57 | 1010.4 |
| 20260504045224 | 64 | 296 | 0.0 | 0.0 | 0.00 | 0.00 | 0.00 | 57 | 1010.4 |
| 20260504044224 | 65 | 296 | 0.0 | 0.0 | 0.00 | 0.00 | 0.00 | 55 | 1010.4 |
| 20260504043817 | 65 | 296 | 0.0 | 0.0 | 0.00 | 0.00 | 0.00 | 55 | 1010.7 |
| 20260504043223 | 65 | 296 | 0.0 | 0.0 | 0.00 | 0.00 | 0.00 | 56 | 1010.5 |
| 20260504042318 | 67 | 296 | 0.0 | 0.0 | 0.00 | 0.00 | 0.00 | 52 | 1011.0 |
| 20260504042224 | 67 | 296 | 0.0 | 0.9 | 0.00 | 0.00 | 0.00 | 51 | 1011.0 |
| 20260504041224 | 67 | 281 | 0.0 | 0.0 | 0.00 | 0.00 | 0.00 | 52 | 1011.1 |
| 20260504040818 | 67 | 281 | 0.0 | 0.0 | 0.00 | 0.00 | 0.00 | 53 | 1011.1 |
| 20260504040223 | 67 | 281 | 0.9 | 0.0 | 0.00 | 0.00 | 0.00 | 55 | 1011.4 |
| 20260504035319 | 68 | 285 | 0.0 | 0.0 | 0.00 | 0.00 | 0.00 | 52 | 1011.2 |
| 20260504035224 | 68 | 285 | 0.0 | 0.9 | 0.00 | 0.00 | 0.00 | 52 | 1011.3 |
| 20260504034224 | 69 | 247 | 0.9 | 0.9 | 0.00 | 0.00 | 0.00 | 49 | 1010.9 |
| 20260504033817 | 69 | 234 | 0.0 | 0.0 | 0.00 | 0.00 | 0.00 | 49 | 1011.2 |
| 20260504033223 | 69 | 234 | 0.0 | 0.0 | 0.00 | 0.00 | 0.00 | 49 | 1011.3 |
| 20260504032318 | 69 | 234 | 0.9 | 1.7 | 0.00 | 0.00 | 0.00 | 49 | 1011.5 |
| 20260504032224 | 69 | 230 | 0.9 | 1.7 | 0.00 | 0.00 | 0.00 | 48 | 1011.5 |
| 20260504031224 | 69 | 230 | 0.0 | 0.0 | 0.00 | 0.00 | 0.00 | 48 | 1011.6 |
| 20260504030817 | 69 | 230 | 0.0 | 0.0 | 0.00 | 0.00 | 0.00 | 48 | 1011.8 |
| 20260504030223 | 69 | 230 | 0.0 | 1.7 | 0.00 | 0.00 | 0.00 | 47 | 1011.7 |
| 20260504025318 | 70 | 230 | 2.6 | 4.3 | 0.00 | 0.00 | 0.00 | 47 | 1011.6 |
| 20260504025224 | 70 | 229 | 0.9 | 5.2 | 0.00 | 0.00 | 0.00 | 47 | 1011.5 |
| 20260504024224 | 70 | 227 | 1.7 | 4.3 | 0.00 | 0.00 | 0.00 | 47 | 1011.5 |
| 20260504023817 | 70 | 204 | 0.0 | 0.0 | 0.00 | 0.00 | 0.00 | 47 | 1011.5 |
| 20260504023223 | 70 | 204 | 0.0 | 0.0 | 0.00 | 0.00 | 0.00 | 47 | 1011.6 |
| 20260504022318 | 70 | 276 | 0.9 | 2.6 | 0.00 | 0.00 | 0.00 | 46 | 1011.5 |
| 20260504022224 | 70 | 276 | 0.0 | 1.7 | 0.00 | 0.00 | 0.00 | 46 | 1011.6 |
| 20260504021224 | 70 | 280 | 0.9 | 0.9 | 0.00 | 0.00 | 0.00 | 46 | 1011.5 |
| 20260504020817 | 70 | 280 | 0.0 | 0.0 | 0.00 | 0.00 | 0.00 | 46 | 1011.5 |
| 20260504020225 | 71 | 280 | 0.0 | 0.0 | 0.00 | 0.00 | 0.00 | 45 | 1011.4 |
| 20260504015318 | 71 | 280 | 0.0 | 0.0 | 0.00 | 0.00 | 0.00 | 45 | 1011.5 |
| 20260504015224 | 70 | 280 | 0.0 | 0.0 | 0.00 | 0.00 | 0.00 | 45 | 1011.5 |
| 20260504014224 | 71 | 284 | 0.0 | 1.7 | 0.00 | 0.00 | 0.00 | 48 | 1011.5 |
| 20260504013817 | 71 | 284 | 0.9 | 1.7 | 0.00 | 0.00 | 0.00 | 45 | 1011.5 |
| 20260504013223 | 72 | 284 | 0.0 | 0.0 | 0.00 | 0.00 | 0.00 | 44 | 1011.3 |
| 20260504012319 | 72 | 310 | 6.1 | 6.1 | 0.00 | 0.00 | 0.00 | 43 | 1011.3 |
| 20260504012225 | 72 | 264 | 2.6 | 7.0 | 0.00 | 0.00 | 0.00 | 43 | 1011.2 |
| 20260504011224 | 72 | 232 | 0.9 | 1.7 | 0.00 | 0.00 | 0.00 | 42 | 1010.9 |
| 20260504010818 | 72 | 233 | 0.0 | 0.0 | 0.00 | 0.00 | 0.00 | 42 | 1011.0 |
| 20260504010223 | 72 | 233 | 0.0 | 0.0 | 0.00 | 0.00 | 0.00 | 42 | 1010.8 |
| 20260504005410 | 72 | 233 | 0.0 | 0.0 | 0.00 | 0.00 | 0.00 | 42 | 1010.7 |
| 20260504005319 | 72 | 233 | 0.0 | 0.0 | 0.00 | 0.00 | 0.00 | 42 | 1010.7 |
| 20260504005225 | 73 | 233 | 0.0 | 0.0 | 0.00 | 0.00 | 0.00 | 42 | 1010.8 |
| 20260504004224 | 73 | 233 | 0.0 | 0.0 | 0.00 | 0.00 | 0.00 | 41 | 1010.9 |
| 20260504003818 | 73 | 233 | 0.0 | 0.0 | 0.00 | 0.00 | 0.00 | 40 | 1010.8 |
| 20260504003223 | 73 | 234 | 0.0 | 1.7 | 0.00 | 0.00 | 0.00 | 39 | 1010.9 |
| 20260504002319 | 74 | 234 | 2.6 | 4.3 | 0.00 | 0.00 | 0.00 | 39 | 1010.9 |
| 20260504002225 | 74 | 234 | 1.7 | 4.3 | 0.00 | 0.00 | 0.00 | 40 | 1010.9 |
| 20260504001224 | 74 | 234 | 0.0 | 0.0 | 0.00 | 0.00 | 0.00 | 39 | 1011.0 |
| 20260504000818 | 74 | 234 | 0.9 | 1.7 | 0.00 | 0.00 | 0.00 | 39 | 1010.9 |
| 20260504000223 | 75 | 223 | 0.9 | 2.6 | 0.00 | 0.00 | 0.00 | 39 | 1011.0 |
| 20260503235319 | 75 | 204 | 1.7 | 1.7 | 0.00 | 0.00 | 0.00 | 38 | 1011.1 |
| 20260503235225 | 75 | 202 | 1.7 | 4.3 | 0.00 | 0.00 | 0.00 | 38 | 1011.0 |
| 20260503234224 | 76 | 221 | 2.6 | 4.3 | 0.00 | 0.00 | 0.00 | 37 | 1011.2 |
| 20260503233818 | 76 | 219 | 4.3 | 5.2 | 0.00 | 0.00 | 0.00 | 38 | 1011.1 |
| 20260503233223 | 76 | 12 | 0.9 | 1.7 | 0.00 | 0.00 | 0.00 | 37 | 1011.1 |
| 20260503232318 | 76 | 193 | 0.9 | 1.7 | 0.00 | 0.00 | 0.00 | 35 | 1011.2 |
| 20260503232224 | 76 | 192 | 0.9 | 2.6 | 0.00 | 0.00 | 0.00 | 35 | 1011.3 |
| 20260503231224 | 77 | 328 | 0.9 | 6.1 | 0.00 | 0.00 | 0.00 | 35 | 1011.3 |
| 20260503230817 | 78 | 235 | 2.6 | 6.1 | 0.00 | 0.00 | 0.00 | 34 | 1011.4 |
| 20260503230223 | 78 | 307 | 1.7 | 2.6 | 0.00 | 0.00 | 0.00 | 33 | 1011.5 |
| 20260503225319 | 79 | 224 | 4.3 | 10.4 | 0.00 | 0.00 | 0.00 | 34 | 1011.4 |
| 20260503225225 | 79 | 243 | 1.7 | 5.2 | 0.00 | 0.00 | 0.00 | 34 | 1011.4 |
| 20260503224224 | 80 | 291 | 1.7 | 4.3 | 0.00 | 0.00 | 0.00 | 33 | 1011.5 |
| 20260503223818 | 80 | 275 | 4.3 | 10.4 | 0.00 | 0.00 | 0.00 | 33 | 1011.5 |
| 20260503223224 | 79 | 276 | 5.2 | 8.7 | 0.00 | 0.00 | 0.00 | 33 | 1011.6 |
| 20260503222320 | 79 | 235 | 2.6 | 8.7 | 0.00 | 0.00 | 0.00 | 33 | 1011.7 |